DateTimeUTC,F1_A11,F1_S11,BsB_S11,BsG_S11,BsR_S11,BbsB_S11,BbsG_S11,BbsR_S11,BaB_A11,BaG_A11,BaR_A11,Tu_S11,T_S11,Uu_S11,U_S11,P_S11,T1_A11
2021-09-20T22:00:00Z,00000200,21000000,,,,,,,0000.07,-000.13,0000.54,18.5,25.8,,00.0,0657.8,31.0
2021-09-20T22:01:00Z,00000200,21000000,,,,,,,0000.47,0000.46,0000.15,18.5,25.8,,00.0,0657.8,31.0
2021-09-20T22:02:00Z,00000200,21000000,,,,,,,-000.57,-000.62,-000.20,18.5,25.8,,00.0,0657.8,31.0
2021-09-20T22:03:00Z,00000200,61000000,,,,,,,-000.29,-000.11,-000.17,18.5,25.8,,00.0,0657.8,31.0
2021-09-20T22:04:00Z,00000200,41000000,0001.56,0001.32,0000.52,0000.63,0000.37,0000.09,0000.33,-000.04,0000.02,18.8,25.6,,00.0,0658.8,31.0
2021-09-20T22:05:00Z,00000200,01000000,0002.27,0001.47,0000.76,-000.21,0000.13,0000.21,0000.15,0000.41,0000.56,18.9,25.6,,00.0,0658.9,31.0
2021-09-20T22:06:00Z,00000200,01000000,0001.80,0001.74,0000.56,0000.43,-000.04,-000.02,0000.35,0000.30,0000.03,19.0,25.6,,00.0,0658.9,31.0
2021-09-20T22:07:00Z,00000200,01000000,0002.34,0001.71,0000.63,-000.19,0000.00,0000.54,0000.47,0000.61,0000.39,19.0,25.6,,00.0,0658.9,31.0
2021-09-20T22:08:00Z,00000200,01000000,0002.29,0002.12,0000.71,0000.43,0000.33,0000.14,0000.62,0000.24,0000.64,19.1,25.6,,00.0,0659.0,31.0
2021-09-20T22:09:00Z,00000200,01000000,0001.85,0001.56,0000.65,0000.00,0000.26,0000.27,-000.04,0000.56,-000.12,19.1,25.6,,00.0,0658.9,31.0
2021-09-20T22:10:00Z,00000200,01000000,0001.57,0001.73,0000.79,-000.07,0000.17,0000.36,0000.50,-000.33,0000.06,19.0,25.6,,00.0,0658.9,31.0
2021-09-20T22:11:00Z,00000200,01000000,0002.44,0001.41,0000.77,0000.29,0000.28,0000.36,0000.34,0000.79,0000.27,18.9,25.6,,00.0,0658.9,31.0
2021-09-20T22:12:00Z,00000200,01000000,0001.74,0001.54,0000.63,0000.22,0000.11,0000.23,0000.72,-000.03,0000.39,18.8,25.5,,00.0,0658.9,31.0
2021-09-20T22:13:00Z,00000200,01000000,0001.77,0001.22,0000.54,0000.44,0000.50,0000.10,-000.06,0000.40,-000.26,18.7,25.5,,00.0,0658.9,31.0
2021-09-20T22:14:00Z,00000200,01000000,0002.33,0001.39,0000.58,0000.10,0000.35,-000.03,0000.28,0000.20,0000.32,18.6,25.4,,00.0,0658.9,30.9
2021-09-20T22:15:00Z,00000200,01000000,0001.63,0001.66,0000.70,0000.75,0000.21,0000.23,0000.89,0000.65,0000.86,18.5,25.3,,00.0,0658.9,30.9
2021-09-20T22:16:00Z,00000200,01000000,0001.69,0001.48,0000.72,0000.07,0000.16,0000.27,0001.08,0000.94,0000.24,18.5,25.3,,00.0,0658.9,30.9
2021-09-20T22:17:00Z,00000200,01000000,0001.92,0001.25,0000.53,0000.49,0000.40,-000.12,0000.99,0001.16,0001.18,18.6,25.3,,00.0,0658.8,30.9
2021-09-20T22:18:00Z,00000200,01000000,0001.93,0001.26,0000.54,0000.44,0000.44,0000.16,0000.46,0000.47,0000.26,18.6,25.3,,00.0,0658.9,31.0
2021-09-20T22:19:00Z,00000200,01000000,0002.32,0001.61,0000.72,0000.98,0000.18,0000.16,0000.26,0000.86,0000.43,18.7,25.4,,00.0,0658.9,31.0
2021-09-20T22:20:00Z,00000200,01000000,0001.79,0001.50,0000.78,0000.27,0000.23,0000.59,0000.80,0000.35,0000.88,18.7,25.4,,00.0,0658.9,31.0
2021-09-20T22:21:00Z,00000200,01000000,0001.89,0001.20,0000.69,-000.12,-000.03,0000.34,0001.01,0001.06,0000.44,18.8,25.4,,00.0,0658.9,31.0
2021-09-20T22:22:00Z,00000200,01000000,0002.24,0001.69,0000.21,0000.24,0000.08,0000.11,0000.63,0000.36,0000.31,18.9,25.4,,00.0,0658.9,31.0
2021-09-20T22:23:00Z,00000200,01000000,0002.31,0001.52,0000.44,0000.41,0000.45,0000.54,0000.11,0000.15,0000.12,18.9,25.4,,00.0,0658.9,31.0
2021-09-20T22:24:00Z,00000200,01000000,0001.85,0001.60,0000.91,-000.13,0000.36,0000.44,0000.09,0000.19,0000.15,18.9,25.5,,00.0,0658.9,31.0
2021-09-20T22:25:00Z,00000200,01000000,0001.49,0001.49,0000.65,0000.20,0000.14,0000.33,0000.32,0000.32,0000.52,19.0,25.5,,00.0,0658.9,31.0
2021-09-20T22:26:00Z,00000200,01000000,0001.46,0001.51,0000.67,0000.49,0000.13,0000.09,0001.29,0000.88,0000.33,19.0,25.5,,00.0,0658.8,31.0
2021-09-20T22:27:00Z,00000200,01000000,0002.31,0001.47,0000.65,0000.30,0000.57,0000.12,0000.48,0000.75,0001.00,18.9,25.5,,00.0,0658.8,31.0
2021-09-20T22:28:00Z,00000200,01000000,0002.46,0001.58,0000.69,0000.04,0000.40,-000.15,0000.39,-000.31,-000.48,18.9,25.5,,00.0,0658.8,31.0
2021-09-20T22:29:00Z,00000200,01000000,0002.52,0001.51,0000.61,0000.56,0000.40,0000.05,0000.27,0000.63,0000.66,18.8,25.4,,00.0,0658.8,31.0
2021-09-20T22:30:00Z,00000200,01000000,0001.96,0001.84,0000.71,-000.18,0000.16,0000.38,0000.50,0000.68,0000.09,18.7,25.3,,00.0,0658.8,31.0
2021-09-20T22:31:00Z,00000200,01000000,0001.61,0001.34,0000.63,-000.19,0000.08,0000.07,0000.73,0000.36,0000.55,18.7,25.3,,00.0,0658.8,31.0
2021-09-20T22:32:00Z,00000200,01000000,0001.14,0001.40,0000.75,0000.97,0000.16,-000.04,0000.69,0000.92,0000.44,18.8,25.4,,00.0,0658.8,31.0
2021-09-20T22:33:00Z,00000200,01000000,0002.26,0001.36,0000.34,0000.22,0000.39,0000.20,0000.37,0000.39,0000.45,18.8,25.4,,00.0,0658.8,31.0
2021-09-20T22:34:00Z,00000200,01000000,0001.29,0001.53,0000.62,-000.05,0000.45,0000.09,0000.36,0000.07,0000.33,18.8,25.4,,00.0,0658.8,31.0
2021-09-20T22:35:00Z,00000200,01000000,0001.92,0001.53,0000.72,0000.01,0000.19,0000.53,0000.54,0000.23,0000.27,18.9,25.4,,00.0,0658.8,31.0
2021-09-20T22:36:00Z,00000200,01000000,0001.21,0001.62,0000.94,0000.00,0000.42,0000.30,-000.01,0000.50,0000.19,18.9,25.4,,00.0,0658.8,31.0
2021-09-20T22:37:00Z,00000200,01000000,0001.16,0001.49,0000.78,-000.25,0000.07,0000.09,0000.33,0000.22,0000.23,19.0,25.5,,00.0,0658.8,31.0
2021-09-20T22:38:00Z,00000200,01000000,0002.12,0001.08,0000.69,0000.40,0000.15,0000.39,0000.41,0000.12,-000.05,19.0,25.5,,00.0,0658.8,31.0
2021-09-20T22:39:00Z,00000200,01000000,0001.99,0001.57,0000.69,0000.09,0000.29,-000.20,0000.46,0000.82,0000.56,19.0,25.5,,00.0,0658.8,31.0
2021-09-20T22:40:00Z,00000200,01000000,0001.64,0001.21,0000.48,0000.86,0000.09,0000.03,0000.52,0000.73,0000.22,19.1,25.5,,00.0,0658.8,31.0
2021-09-20T22:41:00Z,00000200,01000000,0002.02,0001.69,0000.93,-000.36,0000.35,0000.38,0000.42,-000.19,0000.46,19.1,25.5,,00.0,0658.9,31.0
2021-09-20T22:42:00Z,00000200,01000000,0001.60,0001.43,0000.77,0000.20,0000.42,0000.59,0000.51,0000.51,0000.17,19.1,25.5,,00.0,0658.9,31.0
2021-09-20T22:43:00Z,00000200,01000000,0002.23,0001.61,0000.49,0000.60,0000.45,0000.05,0000.16,0000.21,0000.29,19.0,25.5,,00.0,0658.8,31.0
2021-09-20T22:44:00Z,00000200,01000000,0001.81,0001.43,0000.67,0000.42,0000.13,0000.06,0000.24,0000.53,0000.11,19.0,25.5,,00.0,0658.8,31.0
2021-09-20T22:45:00Z,00000200,01000000,0002.13,0001.48,0000.89,-000.02,0000.20,0000.56,0000.70,0000.06,0000.55,18.9,25.4,,00.0,0658.8,31.0
2021-09-20T22:46:00Z,00000200,01000000,0002.32,0001.47,0000.80,-000.10,0000.28,0000.05,0000.69,0001.15,0000.29,18.9,25.4,,00.0,0658.8,31.0
2021-09-20T22:47:00Z,00000200,01000000,0001.91,0001.20,0000.73,0000.39,0000.49,0000.14,0000.71,0000.28,0000.46,18.9,25.4,,00.0,0658.8,31.0
2021-09-20T22:48:00Z,00000200,01000000,0001.52,0001.41,0000.55,0000.29,-000.00,0000.06,0000.43,0000.31,0000.49,19.0,25.5,,00.0,0658.8,31.0
2021-09-20T22:49:00Z,00000200,01000000,0001.31,0001.49,0000.13,-000.18,0000.15,0000.03,-000.24,0000.35,-000.29,19.0,25.5,,00.0,0658.9,31.0
2021-09-20T22:50:00Z,00000200,01000000,0002.28,0001.22,0000.68,0000.05,0000.28,0000.16,0000.86,0000.52,0000.76,19.0,25.5,,00.0,0658.9,31.0
2021-09-20T22:51:00Z,00000200,01000000,0001.40,0001.39,0000.81,0000.28,0000.18,0000.45,0000.43,0000.66,0000.42,19.1,25.5,,00.0,0658.9,31.0
2021-09-20T22:52:00Z,00000200,01000000,0001.58,0001.31,0000.88,0000.24,0000.23,0000.26,0000.54,0000.50,0000.66,19.1,25.5,,00.0,0658.9,31.0
2021-09-20T22:53:00Z,00000200,01000000,0001.44,0001.68,0000.47,-000.11,0000.28,0000.15,0000.67,0000.69,0000.02,19.1,25.5,,00.0,0658.9,31.0
2021-09-20T22:54:00Z,00000200,01000000,0002.20,0001.68,0000.65,0000.20,0000.06,-000.08,0000.57,-000.01,0000.24,19.2,25.5,,00.0,0658.8,31.0
2021-09-20T22:55:00Z,00000200,01000000,0002.34,0001.55,0000.55,0000.28,0000.39,0000.19,0000.02,0000.68,0000.57,19.2,25.6,,00.0,0658.8,31.0
2021-09-20T22:56:00Z,00000200,01000000,0001.46,0001.50,0000.55,0000.26,0000.51,0000.08,0000.69,-000.05,-000.11,19.1,25.6,,00.0,0658.8,31.0
2021-09-20T22:57:00Z,00000200,41000000,,,,,,,0000.65,0000.89,0000.64,19.1,25.6,,00.0,0658.8,31.0
2021-09-20T22:58:00Z,00000200,61000000,,,,,,,-001.19,-001.10,-000.68,18.6,25.6,,00.0,0657.9,31.0
2021-09-20T22:59:00Z,00000200,21000000,,,,,,,-000.09,-000.44,-000.59,18.5,25.7,,00.0,0657.8,30.9
